Regional Weather Roundup
Issued by NWS Mobile, AL

Home | Current Version | Previous Version | Text Only | Print | Product List | Glossary On
Versions: 1 2 3 4 5 6 7 8 9 10 11 12 13 14 15 16 17 18 19 20 21 22 23 24 25 26 27 28 29 30 31 32 33 34 35 36 37 38 39 40 41 42 43 44 45 46 47 48 49 50
000
ASUS44 KMOB 300410
RWRMOB
REGIONAL WEATHER ROUNDUP
NATIONAL WEATHER SERVICE MOBILE AL
1000 PM CST THU JAN 29 2015

NOTE: "FAIR" INDICATES FEW OR NO CLOUDS BELOW 12,000 FEET WITH NO
      SIGNIFICANT WEATHER AND/OR OBSTRUCTIONS TO VISIBILITY.

  * THESE STATIONS ARE PART OF THE UNIVERSITY OF SOUTH ALABAMA
    MESONET AND ARE NOT UNDER NWS OR FAA QUALITY CONTROL.

ALZ061>064-300500-
COASTAL ALABAMA

CITY           SKY/WX    TMP DP  RH WIND       PRES   REMARKS
MOBILE REG APT PTCLDY    57  54  89 SW6       30.21R
BROOKLEY FIELD CLEAR     62  56  80 SW7       30.21S
USA CAMPUS*    NOT AVBL
DOG RIVER*     NOT AVBL


CITY           SKY/WX    TMP DP  RH WIND       PRES   REMARKS
MOUNT VERNON*  NOT AVBL
SARALAND*      NOT AVBL
BAY MINETTE*   NOT AVBL
LOXLEY*        NOT AVBL
ROBERTSDALE*   NOT AVBL
FAIRHOPE*        N/A     61  57  88 SW12      30.20R
ELBERTA*         N/A     57  57 100 S3        30.20S
FOLEY*         NOT AVBL
GRAND BAY*     NOT AVBL
DAUPHIN ISLND* NOT AVBL
BON SCOUR NWR* NOT AVBL
GULF SHORES    PTCLDY    62  59  90 SW9       30.20S

$$

ALZ051>060-300500-
INTERIOR SOUTHWEST AND SOUTH CENTRAL ALABAMA

CITY           SKY/WX    TMP DP  RH WIND       PRES   REMARKS
GREENVILLE     PTCLDY    58  51  78 SW9       30.16R
EVERGREEN      CLEAR     57  53  86 SW7       30.18F
CASTLEBERRY*   NOT AVBL
ATMORE*          N/A     54  54 100 S7        30.20S
DIXIE*           N/A     57  55  94 S5        30.16S
ANDALUSIA/OPP  PTCLDY    60  52  74 W5        30.18F
ANDALUSIA*       N/A     57  54  88 SW9       30.17F
FLORALA APT    PTCLDY    57  53  86 SW7       30.20F
FLORALA*         N/A     54  54 100 CALM      30.17S

$$

FLZ001>006-300500-
WESTERN FLORIDA PANHANDLE

CITY           SKY/WX    TMP DP  RH WIND       PRES   REMARKS
PENSACOLA      PTCLDY    62  57  83 SW9       30.20S
NAS PENSACOLA  MOCLDY    62  59  90 SW9       30.20S
MILTON         MOCLDY    56  54  93 SW6       30.20R
WHTNG S FIELD  MOCLDY    61  56  83 SW5       30.20S


CITY           SKY/WX    TMP DP  RH WIND       PRES   REMARKS
WALNUT HILL*   NOT AVBL
JAY*           NOT AVBL
DUKE FIELD     MOCLDY    56  54  91 SW6       30.20S
CRESTVIEW      PTCLDY    50  49  96 CALM      30.21S FOG
VALPARAISO     MOCLDY    61  56  83 W3        30.20S
DESTIN         CLEAR     64  58  80 SW8       30.20F

$$

MSZ076-079-300500-
INTERIOR SOUTHEAST MISSISSIPPI

CITY           SKY/WX    TMP DP  RH WIND       PRES   REMARKS
LEAKESVILLE*   NOT AVBL
AGRICOLA*      NOT AVBL

$$

MARINE OBSERVATIONS

STATION/POSITION TIME  TEMP    WIND        PRES    WAVE
                       AIR SEA DIR/SP/G            HT/PER
                 (UTC) (F)     (DEG/KT/KT) (MB)    (FT/S)
PASCAGOULA       0400   62     220/  9/ 16 1022.8R
PETIT BOIS ISLND 0400   65     230/ 14/ 17 1023.1R
GRAND BAY        0300   60     220/  7     1023.0S
KATRINA CUT      0300   62     230/ 13     1023.4F
CEDAR POINT      0300   61     230/ 12     1022.4F
E DAUPHIN ISLAND 0300   61     220/  7/  9 1022.5F
MIDDLE BAY LIGHT 0300   59     220/ 11     1022.4S
USCG MOBILE BAY  0400   61 54  230/  4/  7 1021.4F
STATE DOCKS      0400   61 51              1022.1F
MEAHER PARK      0300   58     160/  6     1023.0S
WEEKS BAY        0300   60                   N/A
FORT MORGAN      0400   63     240/ 17/ 20 1022.2S
12 S ORANGE BCH  0400   65 62  210/ 12/ 12 1022.1F   2/ 5
PENSACOLA BAY    0400   63 58  250/  5/  7 1022.9S
64 S DAUPHIN ISL 0312   68 68  230/ 14/ 14 1023.8S   2/ 5

$$

SELECTED LOCATIONS ACROSS THE REGION

CITY           SKY/WX    TMP DP  RH WIND       PRES   REMARKS
NEW ORLEANS    PTCLDY    62  56  80 W8        30.23R
GULFPORT       CLEAR     60  57  89 W3        30.21R
PASCAGOULA AP  CLEAR     59  56  89 SW7       30.21S
PASCAGOULA*    NOT AVBL
HATTIESBURG    PTCLDY    55  52  89 CALM      30.21S
LAUREL         MOCLDY    55  48  76 CALM      30.22R
MERIDIAN       CLEAR     58  48  69 N10       30.23R
JACKSON        MOCLDY    54  40  59 N21G28    30.30R
MONTGOMERY     CLOUDY    61  50  67 SW8       30.16R
TROY           MOCLDY    57  50  77 SW8       30.17S
KINSTON*       NOT AVBL
GENEVA*        NOT AVBL
ASHFORD*         N/A     57  54  88 SW9       30.17F
DOTHAN         PTCLDY    54  50  86 SW8       30.21F
PANAMA CITY    CLEAR     51  50  96 CALM      30.20F

$$



USA.gov is the U.S. government's official web portal to all federal, state and local government web resources and services.